[[{"header":{"parameterUnit":"m.s-1","parameterCategory":1,"la1":30.2991,"la2":30.254,"lo1":-89.0895,"lo2":-89.0444,"dy":0.0017,"dx":0.0017,"nx":28,"ny":28,"refTime":"2024-07-05T09:00:00:Z","depth":0,"parameterNumber":2,"parameterNumberName":"U-component_of_WINDS"},"data":[0,0,0,0,0,0,0,0,0,0,0,0,0,0,0,0,0,0,0,0,0,0,0,0,0,0,0,0,0,0,0,0,0,0,0,0,0,0,0,0,0,0,0,0,0,0,0,0,0,0,0,0,0,0,0,0,0,0,2.6251,2.6251,0,2.6321,2.6322,2.6323,2.6303,2.6302,2.63,2.6299,2.6374,2.6378,2.6381,0,0,0,0,0,0,0,0,0,0,0,0,0,2.6103,2.6106,2.6251,2.6251,2.6252,2.6321,2.6322,2.6323,2.6303,2.6302,2.63,2.6298,2.6373,2.6377,2.6381,0,0,0,0,0,0,0,0,0,0,0,0,0,2.617,2.6107,2.625,2.6251,2.6251,2.6321,2.6322,2.6323,2.6304,2.6302,2.6299,2.6297,2.6372,2.6377,2.6382,2.6456,0,0,2.6397,2.6399,0,0,0,0,0,0,0,0,2.6166,2.6175,2.625,2.6251,2.6252,2.6301,2.6298,2.6368,2.6304,2.6284,2.6299,2.6296,2.6352,2.6358,2.6376,2.6459,2.6463,2.6397,2.6401,2.6403,2.6404,0,0,0,0,0,0,0,2.6161,2.6172,2.6279,2.6251,2.6252,2.6249,2.6256,2.6311,2.6329,2.6286,2.6284,2.6293,2.6352,2.6372,2.6378,2.6464,2.6397,2.6402,2.6405,2.6407,2.6615,2.6617,0,0,0,0,0,0,2.6156,2.6168,2.6276,2.6281,2.6203,2.6253,2.6261,2.6288,2.6329,2.6333,2.6295,2.6292,2.6364,2.6372,2.6381,2.6472,2.6403,2.6407,2.641,2.6612,2.6615,2.6618,0,0,0,0,0,0,2.6152,2.6165,2.6273,2.6224,2.6238,2.6258,2.6288,2.629,2.631,2.6335,2.6339,2.6311,2.6363,2.6374,2.6438,2.6474,2.641,2.6414,2.6609,2.6613,2.6616,2.6655,0,0,0,0,0,0,2.6148,2.6164,2.6192,2.6225,2.624,2.6328,2.629,2.6293,2.6318,2.6315,2.6352,2.6356,2.6362,2.643,2.6443,2.648,2.6418,2.6606,2.6611,2.6615,2.665,2.6659,2.6667,0,0,0,0,0,2.6143,2.62,2.6193,2.6206,2.6275,2.633,2.6339,2.6344,2.6321,2.635,2.6367,2.6355,2.6468,2.6437,2.6451,2.649,2.6604,2.6609,2.6615,2.6647,2.6658,2.6667,0,0,0,0,0,0,2.617,2.6204,2.6197,2.6266,2.6295,2.6327,2.6363,2.6355,2.6393,2.6388,2.6394,2.6403,2.6469,2.6486,2.6451,2.6566,2.6533,2.6542,2.6552,2.6563,2.6571,2.6566,2.6422,0,0,0,0,0,2.6184,2.6225,2.6253,2.6311,2.6326,2.6342,2.6366,2.6368,2.6399,2.6412,2.6433,2.6465,2.6508,2.6536,2.6577,2.6653,2.6662,2.6687,2.6695,2.6702,2.671,2.6753,2.6765,2.6636,2.6636,2.6636,0,0,2.6213,2.6237,2.6263,2.6317,2.634,2.6384,2.6353,2.64,2.6433,2.6419,2.6481,2.6499,2.6535,2.6605,2.6638,2.6622,2.6748,2.6709,2.6714,2.6719,2.676,2.6773,2.6784,2.664,2.6639,2.6639,0,0,2.629,2.6311,2.6362,2.6386,2.6422,2.6432,2.6445,2.6478,2.6489,2.6551,2.6542,2.6583,2.6656,2.6683,2.6706,2.6795,2.6787,2.6809,2.6853,2.6895,2.6905,2.6914,2.6948,2.696,2.6816,2.6816,2.6816,0,2.6322,2.6387,2.639,2.6439,2.6464,2.6453,2.6507,2.653,2.6578,2.6596,2.6578,2.6671,2.6695,2.6773,2.6795,2.6813,2.6829,2.6804,2.6903,2.6913,2.6921,2.6953,2.6966,2.6819,2.6818,2.6818,2.6818,0,2.6426,2.6471,2.6509,2.6555,2.6584,2.6635,2.6648,2.6678,2.6678,2.6691,2.6756,2.6784,2.6831,2.685,2.685,2.6929,2.6918,2.6901,2.6868,2.6936,2.6966,2.6978,2.6822,2.6821,2.6821,2.682,0,0,2.652,2.6568,2.6582,2.6604,2.6643,2.6679,2.6731,2.6777,2.6803,2.6837,2.6882,2.6945,2.6931,2.6957,2.696,2.6997,2.7069,2.6977,2.6978,2.6994,2.716,2.7173,2.7187,2.7063,2.7066,2.7067,2.7158,0,2.66,2.669,2.6696,2.6778,2.6821,2.6813,2.6858,2.6888,2.6903,2.6943,2.6959,2.7004,2.6981,2.6997,2.7033,2.7052,2.7102,2.7046,2.7107,2.7109,2.7099,2.7203,2.7216,2.73,2.7169,2.7171,2.7173,0,2.6706,2.6743,2.6829,2.6865,2.6883,2.6924,2.6967,2.7005,2.704,2.7048,2.7079,2.7077,2.7133,2.7098,2.7175,2.7136,2.7162,2.7175,2.7179,2.7185,2.7145,2.7213,2.7326,2.7339,2.7191,2.719,2.7188,0,2.6768,2.684,2.6901,2.692,2.6962,2.6991,2.701,2.7043,2.7071,2.711,2.7129,2.7173,2.7198,2.7234,2.7246,2.7219,2.7324,2.7289,2.7334,2.7333,2.7356,2.7355,2.7476,2.7371,2.7371,2.7371,2.737,0,2.6858,2.6912,2.693,2.6968,2.7028,2.7036,2.7096,2.7114,2.7143,2.7186,2.7181,2.7221,2.7234,2.7277,2.7287,2.7351,2.7362,2.7371,2.7373,2.7372,2.7371,2.7389,2.7384,2.7374,2.7373,2.7373,2.7372,0,2.6938,2.6952,2.7019,2.7054,2.7064,2.7107,2.7138,2.7175,2.7189,2.7244,2.7257,2.7279,2.733,2.7345,2.7406,2.7413,2.7488,2.7484,2.7476,2.7477,2.7521,2.7517,2.7659,2.7679,2.756,2.7561,2.7562,0,2.6995,2.7036,2.7076,2.7104,2.7124,2.7169,2.7198,2.7207,2.7238,2.7282,2.7315,2.7365,2.7405,2.7487,2.751,2.7557,2.7556,2.7602,2.7563,2.7561,2.7558,2.7556,2.7561,2.761,2.7611,2.7612,2.7613,0,2.7095,2.7101,2.7142,2.7186,2.7221,2.7256,2.729,2.7314,2.7329,2.7363,2.7415,2.7447,2.7509,2.756,2.7609,2.763,2.7625,2.7625,2.7638,2.7638,2.7632,2.7637,2.7498,2.7622,2.7621,2.762,2.762,2.762,2.7166,2.7203,2.7238,2.7284,2.7311,2.7344,2.7381,2.74,2.7443,2.7495,2.7498,2.7555,2.7591,2.7655,2.768,2.7725,2.7712,2.773,2.7735,2.774,2.7744,2.7624,2.7734,2.7734,2.7734,2.7733,2.7733,0,2.7268,2.729,2.7332,2.7381,2.7418,2.7409,2.7447,2.748,2.7529,2.7563,2.7603,2.7664,2.7714,2.7741,2.7791,2.7822,2.7821,2.7835,2.7833,2.7839,2.7753,2.7737,2.7835,2.7835,2.7835,2.7835,2.7835,2.7835,2.7325,2.7388,2.7397,2.7474,2.7496,2.7551,2.7574,2.7605,2.7632,2.77,2.7741,2.7758,2.779,2.7842,2.7888,2.7895,2.7914,2.793,2.7936,2.7855,2.7845,2.7835,2.782,2.7934,2.7934,2.8018,2.8019,2.802]},{"header":{"parameterUnit":"m.s-1","parameterCategory":1,"la1":30.2991,"la2":30.254,"lo1":-89.0895,"lo2":-89.0444,"dy":0.0017,"dx":0.0017,"nx":28,"ny":28,"refTime":"2024-07-05T09:00:00:Z","depth":0,"parameterNumber":3,"parameterNumberName":"V-component_of_WINDS"},"data":[0,0,0,0,0,0,0,0,0,0,0,0,0,0,0,0,0,0,0,0,0,0,0,0,0,0,0,0,0,0,0,0,0,0,0,0,0,0,0,0,0,0,0,0,0,0,0,0,0,0,0,0,0,0,0,0,0,0,-0.3709,-0.3709,0,-0.3716,-0.3716,-0.3716,-0.3729,-0.3729,-0.3729,-0.373,-0.3736,-0.3736,-0.3736,0,0,0,0,0,0,0,0,0,0,0,0,0,-0.3708,-0.3707,-0.3709,-0.3709,-0.3709,-0.3716,-0.3716,-0.3716,-0.3729,-0.3729,-0.373,-0.373,-0.3736,-0.3736,-0.3736,0,0,0,0,0,0,0,0,0,0,0,0,0,-0.3711,-0.3707,-0.3709,-0.3716,-0.3717,-0.3716,-0.3716,-0.3716,-0.3729,-0.3729,-0.373,-0.373,-0.3736,-0.3736,-0.3736,-0.3727,0,0,-0.3735,-0.3735,0,0,0,0,0,0,0,0,-0.371,-0.3711,-0.3715,-0.3716,-0.3717,-0.3722,-0.3718,-0.372,-0.3729,-0.3724,-0.373,-0.373,-0.3731,-0.3731,-0.3732,-0.3727,-0.3728,-0.3735,-0.3735,-0.3735,-0.3735,0,0,0,0,0,0,0,-0.371,-0.371,-0.3711,-0.3715,-0.3716,-0.372,-0.372,-0.3718,-0.3725,-0.3725,-0.3726,-0.3726,-0.3731,-0.3732,-0.3732,-0.3728,-0.3735,-0.3735,-0.3735,-0.3735,-0.3719,-0.3719,0,0,0,0,0,0,-0.3709,-0.371,-0.3711,-0.3712,-0.3714,-0.3719,-0.372,-0.372,-0.3725,-0.3727,-0.3726,-0.3727,-0.3732,-0.3732,-0.3732,-0.3724,-0.3735,-0.3735,-0.3735,-0.372,-0.3719,-0.3719,0,0,0,0,0,0,-0.3709,-0.3709,-0.3711,-0.3711,-0.3712,-0.3719,-0.3718,-0.372,-0.372,-0.3726,-0.3728,-0.3725,-0.3732,-0.3732,-0.3729,-0.3724,-0.3735,-0.3735,-0.372,-0.372,-0.3719,-0.3707,0,0,0,0,0,0,-0.3709,-0.3709,-0.3705,-0.3711,-0.3712,-0.3707,-0.3718,-0.3719,-0.372,-0.3721,-0.3726,-0.3727,-0.3732,-0.3729,-0.3729,-0.3724,-0.3735,-0.3721,-0.372,-0.3719,-0.3707,-0.3706,-0.3704,0,0,0,0,0,-0.3709,-0.3701,-0.3705,-0.3705,-0.3707,-0.3707,-0.3707,-0.3714,-0.3719,-0.3716,-0.3721,-0.3727,-0.3725,-0.3729,-0.3728,-0.3724,-0.3721,-0.372,-0.3719,-0.3708,-0.3706,-0.3704,0,0,0,0,0,0,-0.3693,-0.3701,-0.3706,-0.37,-0.3703,-0.3709,-0.3705,-0.3711,-0.3712,-0.3713,-0.3721,-0.3722,-0.3718,-0.3721,-0.3725,-0.3717,-0.3724,-0.3723,-0.3715,-0.3713,-0.3712,-0.3711,-0.3735,0,0,0,0,0,-0.3689,-0.3688,-0.3695,-0.3689,-0.369,-0.3698,-0.3698,-0.3703,-0.3706,-0.3707,-0.3711,-0.3714,-0.3714,-0.3714,-0.3714,-0.3708,-0.371,-0.3705,-0.3703,-0.3702,-0.3701,-0.37,-0.3698,-0.3717,-0.3717,-0.3717,0,0,-0.368,-0.3685,-0.3684,-0.3686,-0.3689,-0.3688,-0.3698,-0.3696,-0.3696,-0.3707,-0.3704,-0.3707,-0.3711,-0.3707,-0.3705,-0.3709,-0.3697,-0.3701,-0.37,-0.37,-0.3699,-0.3697,-0.3696,-0.3716,-0.3716,-0.3716,0,0,-0.3665,-0.3667,-0.3663,-0.3667,-0.3671,-0.3676,-0.3675,-0.3681,-0.3684,-0.3682,-0.3691,-0.369,-0.369,-0.3693,-0.3694,-0.3682,-0.3688,-0.3682,-0.3674,-0.3672,-0.3671,-0.367,-0.3666,-0.3665,-0.3681,-0.3681,-0.3681,0,-0.3653,-0.3652,-0.366,-0.3659,-0.366,-0.3671,-0.3667,-0.367,-0.3674,-0.3675,-0.3679,-0.3681,-0.3684,-0.3681,-0.3679,-0.3679,-0.3679,-0.3682,-0.3671,-0.3669,-0.3668,-0.3665,-0.3664,-0.3681,-0.3681,-0.3681,-0.3681,0,-0.3639,-0.3638,-0.3634,-0.3639,-0.3641,-0.3638,-0.3646,-0.3647,-0.3652,-0.3657,-0.3656,-0.366,-0.3663,-0.3663,-0.3667,-0.3661,-0.3664,-0.3669,-0.3676,-0.3666,-0.3663,-0.3662,-0.368,-0.368,-0.368,-0.368,0,0,-0.3612,-0.3623,-0.3622,-0.3625,-0.3632,-0.3632,-0.363,-0.3633,-0.3634,-0.3637,-0.3637,-0.3638,-0.3643,-0.3645,-0.3651,-0.3649,-0.3641,-0.3655,-0.3656,-0.3653,-0.3636,-0.3632,-0.3631,-0.3646,-0.3645,-0.3645,-0.3636,0,-0.3598,-0.3596,-0.3605,-0.3601,-0.3601,-0.3612,-0.3611,-0.3616,-0.3621,-0.3622,-0.3628,-0.3629,-0.3636,-0.3637,-0.3637,-0.3642,-0.3638,-0.3643,-0.3646,-0.3646,-0.3645,-0.3629,-0.3625,-0.3616,-0.3635,-0.3635,-0.3635,0,-0.3581,-0.3585,-0.3581,-0.359,-0.3591,-0.3589,-0.3594,-0.3595,-0.3601,-0.3605,-0.3608,-0.3615,-0.3615,-0.3622,-0.3623,-0.3627,-0.3628,-0.3632,-0.3632,-0.3632,-0.364,-0.363,-0.3613,-0.3612,-0.3633,-0.3633,-0.3633,0,-0.3563,-0.3567,-0.3566,-0.3568,-0.3578,-0.3578,-0.3582,-0.3588,-0.359,-0.3594,-0.3596,-0.36,-0.3602,-0.3605,-0.3613,-0.3618,-0.3614,-0.3621,-0.3618,-0.3618,-0.3616,-0.3616,-0.36,-0.3617,-0.3617,-0.3617,-0.3617,0,-0.3547,-0.3544,-0.3558,-0.3558,-0.3556,-0.3566,-0.3564,-0.3569,-0.3575,-0.3576,-0.3586,-0.3587,-0.3598,-0.36,-0.3607,-0.3607,-0.3608,-0.3612,-0.3613,-0.3611,-0.361,-0.3612,-0.3613,-0.3616,-0.3616,-0.3616,-0.3616,0,-0.3526,-0.3535,-0.3535,-0.3545,-0.3548,-0.3546,-0.3555,-0.3556,-0.3562,-0.3564,-0.3565,-0.3575,-0.3578,-0.3587,-0.3592,-0.3597,-0.3596,-0.3599,-0.3594,-0.3595,-0.3592,-0.3592,-0.3576,-0.3575,-0.3592,-0.3592,-0.3592,0,-0.3515,-0.3514,-0.3525,-0.3527,-0.3531,-0.3533,-0.3536,-0.3546,-0.3549,-0.3557,-0.3556,-0.3561,-0.3565,-0.357,-0.3578,-0.3583,-0.3586,-0.358,-0.3587,-0.3585,-0.3587,-0.3587,-0.3588,-0.3579,-0.3579,-0.3578,-0.3578,0,-0.3496,-0.3501,-0.3504,-0.351,-0.3513,-0.3518,-0.3523,-0.3524,-0.3536,-0.3538,-0.3542,-0.3546,-0.3552,-0.3557,-0.3563,-0.3568,-0.3575,-0.3576,-0.3576,-0.3573,-0.3571,-0.3573,-0.3591,-0.3577,-0.3577,-0.3577,-0.3577,-0.3577,-0.348,-0.348,-0.3488,-0.3492,-0.3498,-0.3503,-0.3504,-0.3512,-0.3516,-0.3522,-0.3528,-0.3532,-0.354,-0.3549,-0.3554,-0.3558,-0.3561,-0.356,-0.356,-0.356,-0.3559,-0.3571,-0.3559,-0.3559,-0.3559,-0.3559,-0.3559,0,-0.3462,-0.3468,-0.3472,-0.348,-0.3483,-0.3491,-0.3497,-0.35,-0.3503,-0.351,-0.3515,-0.352,-0.3525,-0.3535,-0.3541,-0.3542,-0.3546,-0.3543,-0.3543,-0.3545,-0.3555,-0.3555,-0.354,-0.354,-0.354,-0.354,-0.354,-0.354,-0.3453,-0.3454,-0.346,-0.3464,-0.3471,-0.3475,-0.3478,-0.3484,-0.3489,-0.3495,-0.35,-0.3506,-0.3514,-0.3522,-0.3527,-0.353,-0.3532,-0.3528,-0.3532,-0.3542,-0.3544,-0.3545,-0.3545,-0.3529,-0.3529,-0.3522,-0.3522,-0.3521]}]]